Wetterdaten: Sonntag, 25.02.2018
Datum Zeit Temp. A. Aussen2m Boden Feuchte A. Feuchte 2 Luftdruck Regen Wind Richtung Richtung Sonnenschein
25.02.2018 00:00 -1,3 C -1,3 C -0,8 C 52 % 54 % 1025,0 hPa 0,0 l/m 25,4 km/h (4 Bft) NO 45 0 min
25.02.2018 00:05 -1,4 C -1,3 C -0,8 C 52 % 54 % 1025,0 hPa 0,0 l/m 13,9 km/h (3 Bft) O 100 0 min
25.02.2018 00:10 -1,4 C -1,3 C -0,8 C 52 % 54 % 1025,0 hPa 0,0 l/m 15,1 km/h (3 Bft) NO 55 0 min
25.02.2018 00:15 -1,4 C -1,3 C -0,8 C 52 % 54 % 1025,0 hPa 0,0 l/m 15,1 km/h (3 Bft) NO 55 0 min
25.02.2018 00:20 -1,4 C -1,3 C -0,8 C 52 % 54 % 1025,0 hPa 0,0 l/m 15,1 km/h (3 Bft) NO 55 0 min
25.02.2018 00:25 -1,5 C -1,4 C -0,8 C 52 % 54 % 1025,0 hPa 0,0 l/m 19,4 km/h (3 Bft) O-NO 65 0 min
25.02.2018 00:30 -1,5 C -1,4 C -0,8 C 52 % 55 % 1025,0 hPa 0,0 l/m 19,4 km/h (3 Bft) O-NO 65 0 min
25.02.2018 00:35 -1,5 C -1,5 C -0,8 C 52 % 54 % 1025,0 hPa 0,0 l/m 19,4 km/h (3 Bft) O-NO 65 0 min
25.02.2018 00:40 -1,5 C -1,5 C -0,8 C 52 % 54 % 1025,0 hPa 0,0 l/m 19,4 km/h (3 Bft) O-NO 65 0 min
25.02.2018 00:45 -1,5 C -1,6 C -0,8 C 52 % 54 % 1025,0 hPa 0,0 l/m 19,4 km/h (3 Bft) O-NO 65 0 min
25.02.2018 00:50 -1,5 C -1,6 C -0,8 C 52 % 54 % 1025,0 hPa 0,0 l/m 19,4 km/h (3 Bft) O-NO 65 0 min
25.02.2018 00:55 -1,5 C -1,7 C -0,8 C 52 % 55 % 1025,0 hPa 0,0 l/m 19,4 km/h (3 Bft) O-NO 65 0 min
25.02.2018 01:00 -1,5 C -1,7 C -0,8 C 52 % 55 % 1025,0 hPa 0,0 l/m 19,4 km/h (3 Bft) O-NO 65 0 min
25.02.2018 01:05 -1,5 C -1,7 C -0,8 C 52 % 55 % 1025,0 hPa 0,0 l/m 19,4 km/h (3 Bft) O-NO 65 0 min
25.02.2018 01:10 -1,5 C -1,8 C -0,8 C 52 % 55 % 1025,0 hPa 0,0 l/m 19,4 km/h (3 Bft) O-NO 65 0 min
25.02.2018 01:15 -1,5 C -1,8 C -0,8 C 52 % 55 % 1025,0 hPa 0,0 l/m 19,4 km/h (3 Bft) O-NO 65 0 min
25.02.2018 01:20 -1,5 C -1,9 C -0,8 C 52 % 55 % 1026,0 hPa 0,0 l/m 19,4 km/h (3 Bft) O-NO 65 0 min
25.02.2018 01:25 -1,5 C -1,9 C -0,8 C 52 % 55 % 1026,0 hPa 0,0 l/m 19,4 km/h (3 Bft) O-NO 65 0 min
25.02.2018 01:30 -1,5 C -1,9 C -0,8 C 52 % 55 % 1026,0 hPa 0,0 l/m 19,4 km/h (3 Bft) O-NO 65 0 min
25.02.2018 01:35 -1,5 C -1,9 C -0,8 C 52 % 55 % 1026,0 hPa 0,0 l/m 19,4 km/h (3 Bft) O-NO 65 0 min
25.02.2018 01:40 -1,5 C -2,0 C -0,8 C 52 % 55 % 1026,0 hPa 0,0 l/m 19,4 km/h (3 Bft) O-NO 65 0 min
25.02.2018 01:45 -1,5 C -2,0 C -0,8 C 52 % 55 % 1026,0 hPa 0,0 l/m 19,4 km/h (3 Bft) O-NO 65 0 min
25.02.2018 01:50 -1,5 C -2,1 C -1,0 C 52 % 55 % 1026,0 hPa 0,0 l/m 19,4 km/h (3 Bft) O-NO 65 0 min
25.02.2018 01:55 -2,2 C -2,1 C -1,0 C 53 % 55 % 1026,0 hPa 0,0 l/m 12,1 km/h (2 Bft) O-NO 65 0 min
25.02.2018 02:00 -2,2 C -2,1 C -1,0 C 53 % 55 % 1026,0 hPa 0,0 l/m 12,1 km/h (2 Bft) O-NO 65 0 min
25.02.2018 02:05 -2,2 C -2,1 C -1,0 C 53 % 55 % 1026,0 hPa 0,0 l/m 12,1 km/h (2 Bft) O-NO 65 0 min
25.02.2018 02:10 -2,2 C -2,2 C -1,0 C 53 % 56 % 1026,0 hPa 0,0 l/m 12,1 km/h (2 Bft) O-NO 65 0 min
25.02.2018 02:15 -2,2 C -2,3 C -1,0 C 53 % 56 % 1026,0 hPa 0,0 l/m 12,1 km/h (2 Bft) O-NO 65 0 min
25.02.2018 02:20 -2,2 C -2,3 C -1,0 C 53 % 56 % 1026,0 hPa 0,0 l/m 12,1 km/h (2 Bft) O-NO 65 0 min
25.02.2018 02:25 -2,2 C -2,4 C -1,0 C 53 % 56 % 1026,0 hPa 0,0 l/m 12,1 km/h (2 Bft) O-NO 65 0 min
25.02.2018 02:30 -2,2 C -2,4 C -1,0 C 53 % 56 % 1026,0 hPa 0,0 l/m 12,1 km/h (2 Bft) O-NO 65 0 min
25.02.2018 02:35 -2,2 C -2,4 C -1,0 C 53 % 56 % 1026,0 hPa 0,0 l/m 12,1 km/h (2 Bft) O-NO 65 0 min
25.02.2018 02:40 -2,2 C -2,5 C -1,0 C 53 % 56 % 1026,0 hPa 0,0 l/m 12,1 km/h (2 Bft) O-NO 65 0 min
25.02.2018 02:45 -2,6 C -2,5 C -1,0 C 54 % 56 % 1026,0 hPa 0,0 l/m 19,4 km/h (3 Bft) O-NO 65 0 min
25.02.2018 02:50 -2,6 C -2,6 C -1,0 C 54 % 56 % 1025,0 hPa 0,0 l/m 19,4 km/h (3 Bft) O-NO 65 0 min
25.02.2018 02:55 -2,6 C -2,6 C -1,0 C 54 % 56 % 1025,0 hPa 0,0 l/m 19,4 km/h (3 Bft) O-NO 65 0 min
25.02.2018 03:00 -2,6 C -2,6 C -1,0 C 54 % 56 % 1025,0 hPa 0,0 l/m 19,4 km/h (3 Bft) O-NO 65 0 min
25.02.2018 03:05 -2,6 C -2,7 C -1,0 C 54 % 56 % 1026,0 hPa 0,0 l/m 19,4 km/h (3 Bft) O-NO 65 0 min
25.02.2018 03:10 -2,6 C -2,7 C -1,0 C 54 % 57 % 1026,0 hPa 0,0 l/m 19,4 km/h (3 Bft) O-NO 65 0 min
25.02.2018 03:15 -2,6 C -2,8 C -1,0 C 54 % 57 % 1026,0 hPa 0,0 l/m 19,4 km/h (3 Bft) O-NO 65 0 min
25.02.2018 03:20 -2,6 C -2,8 C -1,0 C 54 % 57 % 1026,0 hPa 0,0 l/m 19,4 km/h (3 Bft) O-NO 65 0 min
25.02.2018 03:25 -2,6 C -2,8 C -1,0 C 54 % 57 % 1026,0 hPa 0,0 l/m 19,4 km/h (3 Bft) O-NO 65 0 min
25.02.2018 03:30 -2,6 C -2,9 C -1,0 C 54 % 57 % 1026,0 hPa 0,0 l/m 19,4 km/h (3 Bft) O-NO 65 0 min
25.02.2018 03:35 -3,0 C -2,9 C -1,0 C 55 % 57 % 1025,0 hPa 0,0 l/m 20,6 km/h (4 Bft) O 100 0 min
25.02.2018 03:40 -3,0 C -2,9 C -1,0 C 55 % 57 % 1025,0 hPa 0,0 l/m 20,6 km/h (4 Bft) O 100 0 min
25.02.2018 03:45 -3,0 C -2,9 C -1,0 C 55 % 57 % 1025,0 hPa 0,0 l/m 20,6 km/h (4 Bft) O 100 0 min
25.02.2018 03:50 -3,0 C -3,0 C -1,0 C 55 % 57 % 1026,0 hPa 0,0 l/m 20,6 km/h (4 Bft) O 100 0 min
25.02.2018 03:55 -3,0 C -3,0 C -1,0 C 55 % 57 % 1026,0 hPa 0,0 l/m 20,6 km/h (4 Bft) O 100 0 min
25.02.2018 04:00 -3,0 C -3,0 C -1,0 C 55 % 57 % 1026,0 hPa 0,0 l/m 20,6 km/h (4 Bft) O 100 0 min
25.02.2018 04:05 -3,0 C -3,1 C -1,0 C 55 % 58 % 1026,0 hPa 0,0 l/m 20,6 km/h (4 Bft) O 100 0 min
25.02.2018 04:10 -3,0 C -3,1 C -1,0 C 55 % 58 % 1026,0 hPa 0,0 l/m 20,6 km/h (4 Bft) O 100 0 min
25.02.2018 04:15 -3,0 C -3,2 C -1,0 C 55 % 58 % 1026,0 hPa 0,0 l/m 20,6 km/h (4 Bft) O 100 0 min
25.02.2018 04:20 -3,0 C -3,2 C -1,0 C 55 % 58 % 1026,0 hPa 0,0 l/m 20,6 km/h (4 Bft) O 100 0 min
25.02.2018 04:25 -3,0 C -3,2 C -1,0 C 55 % 58 % 1026,0 hPa 0,0 l/m 20,6 km/h (4 Bft) O 100 0 min
25.02.2018 04:30 -3,0 C -3,3 C -1,0 C 55 % 58 % 1026,0 hPa 0,0 l/m 20,6 km/h (4 Bft) O 100 0 min
25.02.2018 04:35 -3,0 C -3,3 C -1,0 C 55 % 58 % 1026,0 hPa 0,0 l/m 20,6 km/h (4 Bft) O 100 0 min
25.02.2018 04:40 -3,0 C -3,4 C -1,0 C 55 % 58 % 1026,0 hPa 0,0 l/m 20,6 km/h (4 Bft) O 100 0 min
25.02.2018 04:45 -3,0 C -3,5 C -1,0 C 55 % 58 % 1026,0 hPa 0,0 l/m 20,6 km/h (4 Bft) O 100 0 min
25.02.2018 04:50 -3,0 C -3,5 C -1,0 C 55 % 58 % 1027,0 hPa 0,0 l/m 20,6 km/h (4 Bft) O 100 0 min
25.02.2018 04:55 -3,0 C -3,5 C -1,0 C 55 % 58 % 1027,0 hPa 0,0 l/m 20,6 km/h (4 Bft) O 100 0 min
25.02.2018 05:00 -3,0 C -3,5 C -1,0 C 55 % 58 % 1027,0 hPa 0,0 l/m 20,6 km/h (4 Bft) O 100 0 min
25.02.2018 05:05 -3,0 C -3,5 C -1,0 C 55 % 59 % 1027,0 hPa 0,0 l/m 20,6 km/h (4 Bft) O 100 0 min
25.02.2018 05:10 -3,0 C -3,6 C -1,0 C 55 % 59 % 1027,0 hPa 0,0 l/m 20,6 km/h (4 Bft) O 100 0 min
25.02.2018 05:15 -3,0 C -3,6 C -1,0 C 55 % 59 % 1027,0 hPa 0,0 l/m 20,6 km/h (4 Bft) O 100 0 min
25.02.2018 05:20 -3,8 C -3,6 C -1,0 C 57 % 59 % 1026,0 hPa 0,0 l/m 16,9 km/h (3 Bft) O 100 0 min
25.02.2018 05:25 -3,8 C -3,7 C -1,0 C 57 % 59 % 1026,0 hPa 0,0 l/m 16,9 km/h (3 Bft) O 100 0 min
25.02.2018 05:30 -3,8 C -3,7 C -1,0 C 57 % 59 % 1026,0 hPa 0,0 l/m 16,9 km/h (3 Bft) O 100 0 min
25.02.2018 05:35 -3,8 C -3,8 C -1,0 C 57 % 59 % 1026,0 hPa 0,0 l/m 16,9 km/h (3 Bft) O 100 0 min
25.02.2018 05:40 -3,8 C -3,8 C -1,0 C 57 % 59 % 1026,0 hPa 0,0 l/m 16,9 km/h (3 Bft) O 100 0 min
25.02.2018 05:45 -3,8 C -3,9 C -1,0 C 57 % 59 % 1026,0 hPa 0,0 l/m 16,9 km/h (3 Bft) O 100 0 min
25.02.2018 05:50 -3,8 C -3,9 C -1,0 C 57 % 59 % 1027,0 hPa 0,0 l/m 16,9 km/h (3 Bft) O 100 0 min
25.02.2018 05:55 -3,8 C -3,9 C -1,0 C 57 % 59 % 1027,0 hPa 0,0 l/m 16,9 km/h (3 Bft) O 100 0 min
25.02.2018 06:00 -3,8 C -3,9 C -1,0 C 57 % 59 % 1027,0 hPa 0,0 l/m 16,9 km/h (3 Bft) O 100 0 min
25.02.2018 06:05 -3,8 C -3,9 C -1,0 C 57 % 58 % 1027,0 hPa 0,0 l/m 16,9 km/h (3 Bft) O 100 0 min
25.02.2018 06:10 -3,8 C -4,0 C -1,0 C 57 % 58 % 1027,0 hPa 0,0 l/m 16,9 km/h (3 Bft) O 100 0 min
25.02.2018 06:15 -3,8 C -4,0 C -1,0 C 57 % 58 % 1027,0 hPa 0,0 l/m 16,9 km/h (3 Bft) O 100 0 min
25.02.2018 06:20 -3,8 C -4,0 C -1,0 C 57 % 58 % 1027,0 hPa 0,0 l/m 16,9 km/h (3 Bft) O 100 0 min
25.02.2018 06:25 -3,8 C -4,0 C -1,0 C 57 % 58 % 1027,0 hPa 0,0 l/m 16,9 km/h (3 Bft) O 100 0 min
25.02.2018 06:30 -3,8 C -4,1 C -1,0 C 57 % 58 % 1027,0 hPa 0,0 l/m 16,9 km/h (3 Bft) O 100 0 min
25.02.2018 06:35 -3,8 C -4,1 C -1,0 C 57 % 58 % 1027,0 hPa 0,0 l/m 16,9 km/h (3 Bft) O 100 0 min
25.02.2018 06:40 -3,8 C -4,1 C -1,0 C 57 % 58 % 1027,0 hPa 0,0 l/m 16,9 km/h (3 Bft) O 100 0 min
25.02.2018 06:45 -3,8 C -4,1 C -1,0 C 57 % 58 % 1027,0 hPa 0,0 l/m 16,9 km/h (3 Bft) O 100 0 min
25.02.2018 06:50 -3,8 C -4,2 C -1,0 C 57 % 58 % 1027,0 hPa 0,0 l/m 16,9 km/h (3 Bft) O 100 0 min
25.02.2018 06:55 -3,8 C -4,3 C -1,0 C 57 % 58 % 1027,0 hPa 0,0 l/m 16,9 km/h (3 Bft) O 100 0 min
25.02.2018 07:00 -3,8 C -4,3 C -1,0 C 57 % 59 % 1027,0 hPa 0,0 l/m 16,9 km/h (3 Bft) O 100 0 min
25.02.2018 07:05 -3,8 C -4,3 C -1,0 C 57 % 58 % 1027,0 hPa 0,0 l/m 16,9 km/h (3 Bft) O 100 0 min
25.02.2018 07:10 -3,8 C -4,3 C -1,0 C 57 % 59 % 1027,0 hPa 0,0 l/m 16,9 km/h (3 Bft) O 100 0 min
25.02.2018 07:15 -4,5 C -4,4 C -1,0 C 57 % 59 % 1027,0 hPa 0,0 l/m 16,3 km/h (3 Bft) O-SO 120 0 min
25.02.2018 07:20 -4,5 C -4,4 C -1,0 C 57 % 59 % 1027,0 hPa 0,0 l/m 16,3 km/h (3 Bft) O-SO 120 0 min
25.02.2018 07:25 -4,5 C -4,4 C -1,0 C 57 % 59 % 1027,0 hPa 0,0 l/m 16,3 km/h (3 Bft) O-SO 120 0 min
25.02.2018 07:30 -4,5 C -4,5 C -1,0 C 57 % 59 % 1027,0 hPa 0,0 l/m 16,3 km/h (3 Bft) O-SO 120 0 min
25.02.2018 07:35 -4,5 C -4,5 C -1,0 C 57 % 59 % 1027,0 hPa 0,0 l/m 16,3 km/h (3 Bft) O-SO 120 0 min
25.02.2018 07:40 -4,5 C -4,5 C -1,0 C 57 % 59 % 1027,0 hPa 0,0 l/m 16,3 km/h (3 Bft) O-SO 120 0 min
25.02.2018 07:45 -4,5 C -4,5 C -1,0 C 57 % 59 % 1027,0 hPa 0,0 l/m 16,3 km/h (3 Bft) O-SO 120 0 min
25.02.2018 07:50 -4,5 C -4,5 C -1,0 C 57 % 60 % 1027,0 hPa 0,0 l/m 16,3 km/h (3 Bft) O-SO 120 0 min
25.02.2018 07:55 -4,5 C -4,5 C -1,0 C 57 % 60 % 1027,0 hPa 0,0 l/m 16,3 km/h (3 Bft) O-SO 120 0 min
25.02.2018 08:00 -4,5 C -4,5 C -1,0 C 57 % 60 % 1027,0 hPa 0,0 l/m 16,3 km/h (3 Bft) O-SO 120 0 min
25.02.2018 08:05 -4,5 C -4,5 C -1,0 C 57 % 60 % 1028,0 hPa 0,0 l/m 16,3 km/h (3 Bft) O-SO 120 0 min
25.02.2018 08:10 -4,5 C -4,5 C -1,0 C 57 % 60 % 1028,0 hPa 0,0 l/m 16,3 km/h (3 Bft) O-SO 120 0 min
25.02.2018 08:15 -4,5 C -4,4 C -1,0 C 57 % 60 % 1028,0 hPa 0,0 l/m 16,3 km/h (3 Bft) O-SO 120 0 min
25.02.2018 08:20 -4,5 C -4,4 C -1,0 C 57 % 60 % 1028,0 hPa 0,0 l/m 16,3 km/h (3 Bft) O-SO 120 0 min
25.02.2018 08:25 -4,5 C -4,5 C -1,0 C 57 % 60 % 1028,0 hPa 0,0 l/m 16,3 km/h (3 Bft) O-SO 120 0 min
25.02.2018 08:30 -4,5 C -4,4 C -1,0 C 57 % 60 % 1028,0 hPa 0,0 l/m 16,3 km/h (3 Bft) O-SO 120 0 min
25.02.2018 08:35 -4,5 C -4,4 C -1,0 C 57 % 60 % 1028,0 hPa 0,0 l/m 16,3 km/h (3 Bft) O-SO 120 0 min
25.02.2018 08:40 -4,0 C -4,3 C -1,0 C 58 % 60 % 1028,0 hPa 0,0 l/m 13,3 km/h (3 Bft) SO 130 34 min
25.02.2018 08:45 -4,0 C -4,3 C -1,0 C 58 % 60 % 1028,0 hPa 0,0 l/m 13,3 km/h (3 Bft) SO 130 0 min
25.02.2018 08:50 -4,0 C -4,3 C -1,0 C 58 % 60 % 1028,0 hPa 0,0 l/m 13,3 km/h (3 Bft) SO 130 0 min
25.02.2018 08:55 -4,0 C -4,2 C -1,0 C 58 % 60 % 1028,0 hPa 0,0 l/m 13,3 km/h (3 Bft) SO 130 0 min
25.02.2018 09:00 -4,0 C -4,1 C -1,0 C 58 % 60 % 1028,0 hPa 0,0 l/m 13,3 km/h (3 Bft) SO 130 0 min
25.02.2018 09:05 -4,0 C -4,0 C -1,0 C 58 % 59 % 1028,0 hPa 0,0 l/m 13,3 km/h (3 Bft) SO 130 0 min
25.02.2018 09:10 -4,0 C -3,9 C -1,0 C 58 % 59 % 1028,0 hPa 0,0 l/m 13,3 km/h (3 Bft) SO 130 0 min
25.02.2018 09:15 -4,0 C -3,8 C -1,0 C 58 % 59 % 1028,0 hPa 0,0 l/m 13,3 km/h (3 Bft) SO 130 0 min
25.02.2018 09:20 -4,0 C -3,7 C -1,0 C 58 % 58 % 1028,0 hPa 0,0 l/m 13,3 km/h (3 Bft) SO 130 0 min
25.02.2018 09:25 -3,2 C -3,5 C -1,0 C 54 % 58 % 1028,0 hPa 0,0 l/m 14,5 km/h (3 Bft) O 100 44 min
25.02.2018 09:30 -3,2 C -3,5 C -1,0 C 54 % 57 % 1028,0 hPa 0,0 l/m 14,5 km/h (3 Bft) O 100 0 min
25.02.2018 09:35 -3,2 C -3,3 C -1,0 C 54 % 57 % 1028,0 hPa 0,0 l/m 14,5 km/h (3 Bft) O 100 0 min
25.02.2018 09:40 -2,8 C -3,3 C -1,0 C 53 % 57 % 1028,0 hPa 0,0 l/m 12,7 km/h (3 Bft) O 85 15 min
25.02.2018 09:45 -2,8 C -3,1 C -1,0 C 53 % 57 % 1028,0 hPa 0,0 l/m 12,7 km/h (3 Bft) O 85 0 min
25.02.2018 09:50 -2,8 C -3,0 C -1,0 C 53 % 56 % 1028,0 hPa 0,0 l/m 12,7 km/h (3 Bft) O 85 0 min
25.02.2018 09:55 -2,8 C -2,8 C -1,0 C 53 % 56 % 1028,0 hPa 0,0 l/m 12,7 km/h (3 Bft) O 85 0 min
25.02.2018 10:00 -2,8 C -2,8 C -1,0 C 53 % 55 % 1028,0 hPa 0,0 l/m 12,7 km/h (3 Bft) O 85 0 min
25.02.2018 10:05 -2,0 C -2,6 C -1,0 C 50 % 54 % 1029,0 hPa 0,0 l/m 8,5 km/h (2 Bft) O 95 25 min
25.02.2018 10:10 -2,0 C -2,5 C -1,0 C 50 % 54 % 1029,0 hPa 0,0 l/m 8,5 km/h (2 Bft) O 95 0 min
25.02.2018 10:15 -1,9 C -2,4 C -1,0 C 48 % 53 % 1029,0 hPa 0,0 l/m 12,7 km/h (3 Bft) N-NO 15 11 min
25.02.2018 10:20 -1,9 C -2,3 C -1,0 C 48 % 52 % 1028,0 hPa 0,0 l/m 13,9 km/h (3 Bft) N-NO 30 2 min
25.02.2018 10:25 -1,7 C -2,2 C -1,0 C 48 % 52 % 1028,0 hPa 0,0 l/m 21,8 km/h (4 Bft) O-NO 60 8 min
25.02.2018 10:30 -1,7 C -2,1 C -1,0 C 47 % 51 % 1028,0 hPa 0,0 l/m 21,8 km/h (4 Bft) O 90 2 min
25.02.2018 10:35 -1,2 C -2,0 C -1,0 C 47 % 51 % 1027,0 hPa 0,0 l/m 20,6 km/h (4 Bft) SO 125 8 min
25.02.2018 10:40 -1,2 C -1,7 C -1,0 C 47 % 51 % 1027,0 hPa 0,0 l/m 20,6 km/h (4 Bft) SO 125 0 min
25.02.2018 10:45 -1,2 C -1,7 C -1,0 C 45 % 50 % 1027,0 hPa 0,0 l/m 11,5 km/h (2 Bft) O-NO 65 10 min
25.02.2018 10:50 -1,1 C -1,7 C -1,0 C 44 % 49 % 1028,0 hPa 0,0 l/m 15,1 km/h (3 Bft) O 80 5 min
25.02.2018 10:55 -1,1 C -1,6 C -1,0 C 44 % 49 % 1028,0 hPa 0,0 l/m 15,1 km/h (3 Bft) O 80 0 min
25.02.2018 11:00 -1,1 C -1,4 C -1,0 C 44 % 49 % 1028,0 hPa 0,0 l/m 15,1 km/h (3 Bft) O 80 0 min
25.02.2018 11:05 -1,1 C -1,2 C -1,0 C 44 % 49 % 1028,0 hPa 0,0 l/m 15,1 km/h (3 Bft) O 80 0 min
25.02.2018 11:10 -1,1 C -1,0 C -1,0 C 44 % 47 % 1028,0 hPa 0,0 l/m 15,1 km/h (3 Bft) O 80 0 min
25.02.2018 11:15 -1,1 C -1,0 C -1,0 C 44 % 47 % 1028,0 hPa 0,0 l/m 15,1 km/h (3 Bft) O 80 0 min
25.02.2018 11:20 -1,1 C -0,9 C -1,0 C 44 % 47 % 1028,0 hPa 0,0 l/m 15,1 km/h (3 Bft) O 80 0 min
25.02.2018 11:25 0,0 C -0,6 C -1,0 C 42 % 47 % 1028,0 hPa 0,0 l/m 11,5 km/h (2 Bft) O-SO 105 33 min
25.02.2018 11:30 -0,3 C -0,6 C -1,0 C 43 % 46 % 1028,0 hPa 0,0 l/m 13,9 km/h (3 Bft) O-NO 65 7 min
25.02.2018 11:35 -0,5 C -0,7 C -1,0 C 42 % 46 % 1028,0 hPa 0,0 l/m 20,0 km/h (4 Bft) O 100 5 min
25.02.2018 11:40 -0,4 C -0,7 C -1,0 C 41 % 45 % 1028,0 hPa 0,0 l/m 12,1 km/h (2 Bft) O 85 5 min
25.02.2018 11:45 -0,5 C -0,8 C -1,0 C 41 % 45 % 1028,0 hPa 0,0 l/m 16,3 km/h (3 Bft) O-SO 110 5 min
25.02.2018 11:50 -0,3 C -0,7 C -1,0 C 41 % 45 % 1028,0 hPa 0,0 l/m 17,6 km/h (3 Bft) SO 145 3 min
25.02.2018 11:55 -0,3 C -0,6 C -1,0 C 41 % 45 % 1028,0 hPa 0,0 l/m 17,6 km/h (3 Bft) SO 145 0 min
25.02.2018 12:00 -0,2 C -0,4 C -1,0 C 39 % 44 % 1028,0 hPa 0,0 l/m 23,0 km/h (4 Bft) O-NO 70 8 min
25.02.2018 12:05 0,1 C -0,2 C -1,0 C 40 % 44 % 1028,0 hPa 0,0 l/m 6,7 km/h (2 Bft) NO 55 7 min
25.02.2018 12:10 0,3 C -0,1 C -1,0 C 40 % 44 % 1028,0 hPa 0,0 l/m 10,9 km/h (2 Bft) SO 135 5 min
25.02.2018 12:15 0,4 C -0,1 C -1,0 C 38 % 43 % 1028,0 hPa 0,0 l/m 12,1 km/h (2 Bft) SO 125 5 min
25.02.2018 12:20 0,2 C -0,1 C -1,0 C 39 % 42 % 1028,0 hPa 0,0 l/m 15,7 km/h (3 Bft) O-SO 115 3 min
25.02.2018 12:25 0,0 C -0,1 C -1,0 C 38 % 42 % 1028,0 hPa 0,0 l/m 24,2 km/h (4 Bft) N 10 7 min
25.02.2018 12:30 0,1 C 0,0 C -1,0 C 39 % 42 % 1028,0 hPa 0,0 l/m 16,3 km/h (3 Bft) N-NW 335 5 min
25.02.2018 12:35 0,4 C 0,0 C -1,0 C 39 % 42 % 1027,0 hPa 0,0 l/m 13,3 km/h (3 Bft) N 0 5 min
25.02.2018 12:40 0,7 C 0,2 C -1,0 C 38 % 41 % 1027,0 hPa 0,0 l/m 14,5 km/h (3 Bft) SO 135 6 min
25.02.2018 12:45 0,5 C 0,3 C -1,0 C 38 % 41 % 1027,0 hPa 0,0 l/m 15,7 km/h (3 Bft) N-NO 25 5 min
25.02.2018 12:50 0,5 C 0,2 C -1,0 C 38 % 40 % 1027,0 hPa 0,0 l/m 15,7 km/h (3 Bft) N-NO 25 0 min
25.02.2018 12:55 0,3 C 0,3 C -1,0 C 37 % 41 % 1027,0 hPa 0,0 l/m 13,9 km/h (3 Bft) NO 55 7 min
25.02.2018 13:00 0,3 C 0,3 C -1,0 C 37 % 39 % 1027,0 hPa 0,0 l/m 13,9 km/h (3 Bft) NO 55 0 min
25.02.2018 13:05 0,6 C 0,4 C -1,0 C 36 % 39 % 1027,0 hPa 0,0 l/m 18,2 km/h (3 Bft) NO 50 10 min
25.02.2018 13:10 0,7 C 0,4 C -1,0 C 36 % 39 % 1027,0 hPa 0,0 l/m 13,3 km/h (3 Bft) O 95 7 min
25.02.2018 13:15 0,1 C 0,4 C -1,0 C 37 % 40 % 1027,0 hPa 0,0 l/m 29,8 km/h (5 Bft) O-NO 60 3 min
25.02.2018 13:20 0,7 C 0,6 C -1,0 C 37 % 40 % 1026,0 hPa 0,0 l/m 15,7 km/h (3 Bft) N-NO 30 8 min
25.02.2018 13:25 0,5 C 0,6 C -1,0 C 37 % 39 % 1026,0 hPa 0,0 l/m 15,7 km/h (3 Bft) O 95 2 min
25.02.2018 13:30 0,9 C 0,6 C -1,0 C 36 % 40 % 1026,0 hPa 0,0 l/m 17,6 km/h (3 Bft) O-SO 115 8 min
25.02.2018 13:35 0,9 C 0,7 C -1,0 C 36 % 39 % 1027,0 hPa 0,0 l/m 17,6 km/h (3 Bft) O-SO 115 0 min
25.02.2018 13:40 0,9 C 0,9 C -1,0 C 36 % 39 % 1027,0 hPa 0,0 l/m 17,6 km/h (3 Bft) O-SO 115 0 min
25.02.2018 13:45 0,8 C 0,9 C -1,0 C 36 % 38 % 1027,0 hPa 0,0 l/m 26,0 km/h (4 Bft) O 90 15 min
25.02.2018 13:50 0,9 C 0,9 C -1,0 C 36 % 38 % 1026,0 hPa 0,0 l/m 28,6 km/h (5 Bft) S 170 6 min
25.02.2018 13:55 0,9 C 0,9 C -1,0 C 36 % 38 % 1026,0 hPa 0,0 l/m 28,6 km/h (5 Bft) S 170 0 min
25.02.2018 14:00 0,9 C 1,0 C -1,0 C 35 % 38 % 1026,0 hPa 0,0 l/m 15,7 km/h (3 Bft) NO 55 10 min
25.02.2018 14:05 0,9 C 0,9 C -0,8 C 35 % 37 % 1026,0 hPa 0,0 l/m 15,7 km/h (3 Bft) NO 55 0 min
25.02.2018 14:10 0,9 C 0,9 C -0,8 C 35 % 37 % 1026,0 hPa 0,0 l/m 15,7 km/h (3 Bft) NO 55 0 min
25.02.2018 14:15 0,9 C 0,8 C -0,8 C 35 % 37 % 1026,0 hPa 0,0 l/m 15,7 km/h (3 Bft) NO 55 0 min
25.02.2018 14:20 0,9 C 0,9 C -0,8 C 35 % 38 % 1027,0 hPa 0,0 l/m 15,7 km/h (3 Bft) NO 55 0 min
25.02.2018 14:25 1,2 C 1,0 C -0,8 C 34 % 37 % 1027,0 hPa 0,0 l/m 22,4 km/h (4 Bft) SO 140 22 min
25.02.2018 14:30 1,2 C 1,1 C -0,8 C 34 % 37 % 1027,0 hPa 0,0 l/m 22,4 km/h (4 Bft) SO 140 0 min
25.02.2018 14:35 1,0 C 1,1 C -0,8 C 33 % 36 % 1026,0 hPa 0,0 l/m 21,2 km/h (4 Bft) O-SO 110 11 min
25.02.2018 14:40 1,2 C 0,9 C -0,8 C 33 % 36 % 1026,0 hPa 0,0 l/m 18,2 km/h (3 Bft) O-NO 75 2 min
25.02.2018 14:45 1,2 C 1,3 C -0,8 C 33 % 36 % 1026,0 hPa 0,0 l/m 18,2 km/h (3 Bft) O-NO 75 0 min
25.02.2018 14:50 1,2 C 1,2 C -0,8 C 33 % 36 % 1026,0 hPa 0,0 l/m 18,2 km/h (3 Bft) O-NO 75 0 min
25.02.2018 14:55 1,2 C 1,2 C -0,8 C 33 % 36 % 1026,0 hPa 0,0 l/m 18,2 km/h (3 Bft) O-NO 75 0 min
25.02.2018 15:00 1,2 C 1,1 C -0,8 C 33 % 35 % 1026,0 hPa 0,0 l/m 18,2 km/h (3 Bft) O-NO 75 0 min
25.02.2018 15:05 0,7 C 0,9 C -0,8 C 33 % 36 % 1026,0 hPa 0,0 l/m 27,8 km/h (5 Bft) N-NO 30 26 min
25.02.2018 15:10 1,1 C 1,1 C -0,8 C 33 % 35 % 1026,0 hPa 0,0 l/m 18,2 km/h (3 Bft) NO 50 5 min
25.02.2018 15:15 1,1 C 1,0 C -0,8 C 33 % 35 % 1026,0 hPa 0,0 l/m 18,2 km/h (3 Bft) NO 50 0 min
25.02.2018 15:20 0,9 C 0,9 C -0,8 C 33 % 36 % 1026,0 hPa 0,0 l/m 16,9 km/h (3 Bft) N-NO 20 13 min
25.02.2018 15:25 0,9 C 1,0 C -0,8 C 33 % 34 % 1026,0 hPa 0,0 l/m 16,9 km/h (3 Bft) N-NO 20 0 min
25.02.2018 15:30 0,9 C 0,9 C -0,8 C 33 % 34 % 1026,0 hPa 0,0 l/m 16,9 km/h (3 Bft) N-NO 20 0 min
25.02.2018 15:35 0,9 C 0,9 C -0,8 C 33 % 34 % 1026,0 hPa 0,0 l/m 16,9 km/h (3 Bft) N-NO 20 0 min
25.02.2018 15:40 0,9 C 0,9 C -0,8 C 33 % 35 % 1026,0 hPa 0,0 l/m 16,9 km/h (3 Bft) N-NO 20 0 min
25.02.2018 15:45 0,9 C 0,7 C -0,8 C 33 % 34 % 1026,0 hPa 0,0 l/m 16,9 km/h (3 Bft) N-NO 20 0 min
25.02.2018 15:50 1,0 C 0,7 C -0,8 C 32 % 34 % 1026,0 hPa 0,0 l/m 21,2 km/h (4 Bft) N-NO 15 29 min
25.02.2018 15:55 1,0 C 0,6 C -0,8 C 32 % 35 % 1026,0 hPa 0,0 l/m 22,4 km/h (4 Bft) NO 45 6 min
25.02.2018 16:00 0,9 C 0,6 C -0,8 C 32 % 35 % 1026,0 hPa 0,0 l/m 19,4 km/h (3 Bft) N 5 3 min
25.02.2018 16:05 0,9 C 0,6 C -0,8 C 32 % 36 % 1026,0 hPa 0,0 l/m 19,4 km/h (3 Bft) N 5 0 min
25.02.2018 16:10 0,9 C 0,6 C -0,8 C 32 % 37 % 1026,0 hPa 0,0 l/m 19,4 km/h (3 Bft) N 5 0 min
25.02.2018 16:15 0,9 C 0,6 C -0,8 C 32 % 36 % 1026,0 hPa 0,0 l/m 19,4 km/h (3 Bft) N 5 0 min
25.02.2018 16:20 0,9 C 0,5 C -0,8 C 33 % 36 % 1026,0 hPa 0,0 l/m 27,1 km/h (5 Bft) O-SO 105 19 min
25.02.2018 16:25 1,0 C 0,5 C -0,8 C 33 % 37 % 1026,0 hPa 0,0 l/m 21,8 km/h (4 Bft) O 80 4 min
25.02.2018 16:30 1,0 C 0,5 C -0,8 C 33 % 36 % 1026,0 hPa 0,0 l/m 21,8 km/h (4 Bft) O 80 0 min
25.02.2018 16:35 0,9 C 0,4 C -0,8 C 33 % 36 % 1025,0 hPa 0,0 l/m 26,0 km/h (4 Bft) N 355 14 min
25.02.2018 16:40 0,8 C 0,4 C -0,8 C 33 % 36 % 1025,0 hPa 0,0 l/m 18,2 km/h (3 Bft) NO 40 2 min
25.02.2018 16:45 0,8 C 0,3 C -0,8 C 33 % 38 % 1025,0 hPa 0,0 l/m 18,2 km/h (3 Bft) NO 40 0 min
25.02.2018 16:50 0,7 C 0,4 C -0,8 C 36 % 39 % 1025,0 hPa 0,0 l/m 18,2 km/h (3 Bft) N-NO 25 13 min
25.02.2018 16:55 0,9 C 0,4 C -0,8 C 36 % 40 % 1025,0 hPa 0,0 l/m 10,3 km/h (2 Bft) O-NO 65 2 min
25.02.2018 17:00 1,0 C 0,4 C -0,8 C 36 % 40 % 1025,0 hPa 0,0 l/m 9,7 km/h (2 Bft) O-NO 60 8 min
25.02.2018 17:05 1,0 C 0,3 C -0,8 C 36 % 39 % 1026,0 hPa 0,0 l/m 9,7 km/h (2 Bft) O-NO 60 0 min
25.02.2018 17:10 1,0 C 0,2 C -0,8 C 36 % 39 % 1026,0 hPa 0,0 l/m 9,7 km/h (2 Bft) O-NO 60 0 min
25.02.2018 17:15 0,5 C 0,0 C -0,8 C 35 % 38 % 1026,0 hPa 0,0 l/m 10,9 km/h (2 Bft) O 95 15 min
25.02.2018 17:20 0,4 C 0,0 C -0,8 C 35 % 39 % 1025,0 hPa 0,0 l/m 8,5 km/h (2 Bft) O-NO 60 2 min
25.02.2018 17:25 0,4 C 0,0 C -0,8 C 35 % 41 % 1025,0 hPa 0,0 l/m 8,5 km/h (2 Bft) O-NO 60 0 min
25.02.2018 17:30 0,0 C -0,1 C -0,8 C 39 % 43 % 1025,0 hPa 0,0 l/m 23,0 km/h (4 Bft) N-NO 20 5 min
25.02.2018 17:35 -0,3 C -0,1 C -1,0 C 41 % 44 % 1025,0 hPa 0,0 l/m 16,9 km/h (3 Bft) SO 135 0 min
25.02.2018 17:40 -0,5 C -0,2 C -1,0 C 43 % 45 % 1025,0 hPa 0,0 l/m 24,8 km/h (4 Bft) N-NO 20 0 min
25.02.2018 17:45 -0,6 C -0,3 C -1,0 C 42 % 44 % 1025,0 hPa 0,0 l/m 23,0 km/h (4 Bft) NO 35 0 min
25.02.2018 17:50 -0,6 C -0,3 C -1,0 C 43 % 45 % 1026,0 hPa 0,0 l/m 32,9 km/h (5 Bft) N 10 0 min
25.02.2018 17:55 -0,6 C -0,4 C -1,0 C 43 % 46 % 1026,0 hPa 0,0 l/m 32,9 km/h (5 Bft) N 10 0 min
25.02.2018 18:00 -0,7 C -0,5 C -1,0 C 43 % 45 % 1026,0 hPa 0,0 l/m 16,9 km/h (3 Bft) N 5 0 min
25.02.2018 18:05 -0,8 C -0,6 C -1,0 C 44 % 45 % 1026,0 hPa 0,0 l/m 18,2 km/h (3 Bft) N-NO 15 0 min
25.02.2018 18:10 -1,0 C -0,6 C -1,0 C 44 % 45 % 1026,0 hPa 0,0 l/m 24,8 km/h (4 Bft) N-NO 25 0 min
25.02.2018 18:15 -1,0 C -0,7 C -1,0 C 44 % 45 % 1026,0 hPa 0,0 l/m 11,5 km/h (2 Bft) N-NO 30 0 min
25.02.2018 18:20 -1,0 C -0,8 C -1,0 C 44 % 46 % 1026,0 hPa 0,0 l/m 11,5 km/h (2 Bft) N-NO 30 0 min
25.02.2018 18:25 -1,1 C -0,8 C -1,0 C 44 % 46 % 1026,0 hPa 0,0 l/m 15,7 km/h (3 Bft) O-SO 110 0 min
25.02.2018 18:30 -1,1 C -0,9 C -1,0 C 45 % 47 % 1026,0 hPa 0,0 l/m 22,4 km/h (4 Bft) NW 320 0 min
25.02.2018 18:35 -1,0 C -0,8 C -1,0 C 45 % 47 % 1026,0 hPa 0,0 l/m 12,1 km/h (2 Bft) O-NO 75 0 min
25.02.2018 18:40 -1,0 C -0,8 C -1,0 C 45 % 47 % 1026,0 hPa 0,0 l/m 12,1 km/h (2 Bft) O-NO 75 0 min
25.02.2018 18:45 -0,9 C -0,8 C -1,0 C 44 % 47 % 1026,0 hPa 0,0 l/m 15,7 km/h (3 Bft) S-SO 150 0 min
25.02.2018 18:50 -0,9 C -0,8 C -1,0 C 44 % 47 % 1027,0 hPa 0,0 l/m 23,6 km/h (4 Bft) NO 45 0 min
25.02.2018 18:55 -1,0 C -0,8 C -1,0 C 46 % 48 % 1027,0 hPa 0,0 l/m 9,7 km/h (2 Bft) SO 135 0 min
25.02.2018 19:00 -0,9 C -0,8 C -1,0 C 45 % 48 % 1027,0 hPa 0,0 l/m 20,6 km/h (4 Bft) O-NO 75 0 min
25.02.2018 19:05 -0,9 C -0,8 C -1,0 C 45 % 47 % 1026,0 hPa 0,0 l/m 20,6 km/h (4 Bft) O-NO 75 0 min
25.02.2018 19:10 -1,0 C -0,8 C -1,0 C 45 % 48 % 1026,0 hPa 0,0 l/m 21,8 km/h (4 Bft) NO 45 0 min
25.02.2018 19:15 -1,0 C -0,9 C -1,0 C 48 % 49 % 1026,0 hPa 0,0 l/m 9,7 km/h (2 Bft) NO 40 0 min
25.02.2018 19:20 -1,0 C -0,9 C -1,0 C 48 % 50 % 1026,0 hPa 0,0 l/m 20,0 km/h (4 Bft) O-NO 75 0 min
25.02.2018 19:25 -1,0 C -0,9 C -1,0 C 48 % 49 % 1026,0 hPa 0,0 l/m 14,5 km/h (3 Bft) O-SO 105 0 min
25.02.2018 19:30 -1,1 C -0,9 C -1,0 C 46 % 48 % 1026,0 hPa 0,0 l/m 18,8 km/h (3 Bft) O-NO 70 0 min
25.02.2018 19:35 -1,1 C -1,0 C -1,0 C 46 % 48 % 1026,0 hPa 0,0 l/m 18,8 km/h (3 Bft) O-NO 70 0 min
25.02.2018 19:40 -1,2 C -1,1 C -1,0 C 47 % 49 % 1026,0 hPa 0,0 l/m 18,2 km/h (3 Bft) N-NO 30 0 min
25.02.2018 19:45 -1,3 C -1,1 C -1,0 C 48 % 49 % 1026,0 hPa 0,0 l/m 13,9 km/h (3 Bft) NO 55 0 min
25.02.2018 19:50 -1,5 C -1,2 C -1,0 C 50 % 52 % 1026,0 hPa 0,0 l/m 20,6 km/h (4 Bft) O 85 0 min
25.02.2018 19:55 -1,6 C -1,3 C -1,0 C 51 % 52 % 1026,0 hPa 0,0 l/m 23,0 km/h (4 Bft) O-NO 70 0 min
25.02.2018 20:00 -1,6 C -1,4 C -1,0 C 51 % 53 % 1026,0 hPa 0,0 l/m 26,3 km/h (4 Bft) NO 50 0 min
25.02.2018 20:05 -1,7 C -1,5 C -1,0 C 52 % 54 % 1027,0 hPa 0,0 l/m 26,7 km/h (4 Bft) O-NO 70 0 min
25.02.2018 20:10 -1,8 C -1,6 C -1,0 C 52 % 54 % 1027,0 hPa 0,0 l/m 24,8 km/h (4 Bft) NO 35 0 min
25.02.2018 20:15 -1,8 C -1,6 C -1,0 C 52 % 55 % 1027,0 hPa 0,0 l/m 24,8 km/h (4 Bft) NO 35 0 min
25.02.2018 20:20 -1,9 C -1,7 C -1,0 C 53 % 55 % 1026,0 hPa 0,0 l/m 18,8 km/h (3 Bft) O 85 0 min
25.02.2018 20:25 -1,9 C -1,7 C -1,0 C 54 % 55 % 1026,0 hPa 0,0 l/m 18,8 km/h (3 Bft) N 10 0 min
25.02.2018 20:30 -1,9 C -1,7 C -1,0 C 54 % 55 % 1026,0 hPa 0,0 l/m 25,4 km/h (4 Bft) O 100 0 min
25.02.2018 20:35 -1,9 C -1,8 C -1,0 C 53 % 55 % 1027,0 hPa 0,0 l/m 36,4 km/h (5 Bft) O 90 0 min
25.02.2018 20:40 -2,0 C -1,8 C -1,0 C 54 % 56 % 1027,0 hPa 0,0 l/m 25,4 km/h (4 Bft) O-NO 70 0 min
25.02.2018 20:45 -2,0 C -1,8 C -1,0 C 54 % 56 % 1027,0 hPa 0,0 l/m 25,4 km/h (4 Bft) O-NO 70 0 min
25.02.2018 20:50 -2,1 C -1,9 C -1,0 C 54 % 55 % 1027,0 hPa 0,0 l/m 18,8 km/h (3 Bft) NO 50 0 min
25.02.2018 20:55 -2,1 C -2,0 C -1,0 C 54 % 55 % 1027,0 hPa 0,0 l/m 16,9 km/h (3 Bft) N-NO 30 0 min
25.02.2018 21:00 -2,2 C -2,1 C -1,2 C 53 % 55 % 1027,0 hPa 0,0 l/m 18,2 km/h (3 Bft) O-NO 70 0 min
25.02.2018 21:05 -2,2 C -2,1 C -1,2 C 53 % 55 % 1027,0 hPa 0,0 l/m 18,2 km/h (3 Bft) O-NO 70 0 min
25.02.2018 21:10 -2,2 C -2,1 C -1,2 C 53 % 55 % 1027,0 hPa 0,0 l/m 26,0 km/h (4 Bft) O-NO 75 0 min
25.02.2018 21:15 -2,2 C -2,1 C -1,2 C 53 % 55 % 1027,0 hPa 0,0 l/m 26,0 km/h (4 Bft) O-NO 75 0 min
25.02.2018 21:20 -2,2 C -2,1 C -1,2 C 53 % 55 % 1027,0 hPa 0,0 l/m 26,0 km/h (4 Bft) O-NO 75 0 min
25.02.2018 21:25 -2,2 C -2,2 C -1,2 C 53 % 55 % 1027,0 hPa 0,0 l/m 26,0 km/h (4 Bft) O-NO 75 0 min
25.02.2018 21:30 -2,4 C -2,2 C -1,2 C 53 % 55 % 1027,0 hPa 0,0 l/m 13,3 km/h (3 Bft) O-NO 65 0 min
25.02.2018 21:35 -2,4 C -2,3 C -1,2 C 53 % 55 % 1028,0 hPa 0,0 l/m 16,9 km/h (3 Bft) O-SO 120 0 min
25.02.2018 21:40 -2,4 C -2,3 C -1,2 C 53 % 55 % 1028,0 hPa 0,0 l/m 16,9 km/h (3 Bft) O-SO 120 0 min
25.02.2018 21:45 -2,4 C -2,3 C -1,2 C 53 % 55 % 1028,0 hPa 0,0 l/m 16,9 km/h (3 Bft) O-SO 120 0 min
25.02.2018 21:50 -2,5 C -2,4 C -1,2 C 53 % 55 % 1027,0 hPa 0,0 l/m 12,7 km/h (3 Bft) O-SO 120 0 min
25.02.2018 21:55 -2,5 C -2,5 C -1,2 C 53 % 55 % 1027,0 hPa 0,0 l/m 12,7 km/h (3 Bft) O-SO 120 0 min
25.02.2018 22:00 -2,5 C -2,5 C -1,2 C 53 % 56 % 1027,0 hPa 0,0 l/m 12,7 km/h (3 Bft) O-SO 120 0 min
25.02.2018 22:05 -2,7 C -2,6 C -1,2 C 54 % 56 % 1027,0 hPa 0,0 l/m 14,5 km/h (3 Bft) O-SO 115 0 min
25.02.2018 22:10 -2,7 C -2,6 C -1,2 C 55 % 56 % 1027,0 hPa 0,0 l/m 20,6 km/h (4 Bft) O 85 0 min
25.02.2018 22:15 -2,7 C -2,6 C -1,2 C 55 % 56 % 1027,0 hPa 0,0 l/m 21,8 km/h (4 Bft) O-SO 115 0 min
25.02.2018 22:20 -2,7 C -2,6 C -1,2 C 55 % 57 % 1027,0 hPa 0,0 l/m 21,8 km/h (4 Bft) O-SO 115 0 min
25.02.2018 22:25 -2,8 C -2,6 C -1,2 C 56 % 57 % 1027,0 hPa 0,0 l/m 16,9 km/h (3 Bft) O 95 0 min
25.02.2018 22:30 -2,8 C -2,7 C -1,2 C 56 % 58 % 1027,0 hPa 0,0 l/m 5,4 km/h (2 Bft) O 100 0 min
25.02.2018 22:35 -2,8 C -2,7 C -1,2 C 57 % 58 % 1027,0 hPa 0,0 l/m 13,3 km/h (3 Bft) O 80 0 min
25.02.2018 22:40 -2,8 C -2,7 C -1,2 C 57 % 58 % 1027,0 hPa 0,0 l/m 23,0 km/h (4 Bft) O-NO 70 0 min
25.02.2018 22:45 -2,9 C -2,7 C -1,2 C 57 % 58 % 1027,0 hPa 0,0 l/m 16,3 km/h (3 Bft) O 80 0 min
25.02.2018 22:50 -2,9 C -2,8 C -1,2 C 58 % 59 % 1027,0 hPa 0,0 l/m 23,6 km/h (4 Bft) O 90 0 min
25.02.2018 22:55 -2,9 C -2,8 C -1,2 C 58 % 59 % 1027,0 hPa 0,0 l/m 7,9 km/h (2 Bft) O 85 0 min
25.02.2018 23:00 -2,9 C -2,9 C -1,2 C 58 % 60 % 1027,0 hPa 0,0 l/m 7,9 km/h (2 Bft) O 85 0 min
25.02.2018 23:05 -3,0 C -2,9 C -1,2 C 60 % 60 % 1028,0 hPa 0,0 l/m 14,5 km/h (3 Bft) NO 35 0 min
25.02.2018 23:10 -3,0 C -2,9 C -1,2 C 60 % 61 % 1028,0 hPa 0,0 l/m 21,8 km/h (4 Bft) S-SO 150 0 min
25.02.2018 23:15 -3,0 C -2,9 C -1,2 C 61 % 61 % 1028,0 hPa 0,0 l/m 22,4 km/h (4 Bft) O 80 0 min
25.02.2018 23:20 -3,0 C -2,9 C -1,2 C 61 % 62 % 1027,0 hPa 0,0 l/m 11,5 km/h (2 Bft) N-NO 25 0 min
25.02.2018 23:25 -3,0 C -2,9 C -1,2 C 61 % 62 % 1027,0 hPa 0,0 l/m 10,3 km/h (2 Bft) O-SO 105 0 min
25.02.2018 23:30 -3,0 C -3,0 C -1,2 C 61 % 62 % 1027,0 hPa 0,0 l/m 10,3 km/h (2 Bft) O-SO 105 0 min
25.02.2018 23:35 -3,1 C -3,0 C -1,2 C 63 % 63 % 1027,0 hPa 0,0 l/m 21,8 km/h (4 Bft) NO 35 0 min
25.02.2018 23:40 -3,1 C -3,0 C -1,2 C 63 % 63 % 1027,0 hPa 0,0 l/m 21,2 km/h (4 Bft) NO 50 0 min
25.02.2018 23:45 -3,2 C -3,0 C -1,2 C 64 % 64 % 1027,0 hPa 0,0 l/m 9,1 km/h (2 Bft) O-NO 65 0 min
25.02.2018 23:50 -3,2 C -3,0 C -1,2 C 64 % 64 % 1028,0 hPa 0,0 l/m 12,1 km/h (2 Bft) NO 55 0 min
25.02.2018 23:55 -3,2 C -3,1 C -1,2 C 65 % 65 % 1028,0 hPa 0,0 l/m 21,8 km/h (4 Bft) NO 50 0 min
_ Min-Zeit 07:15 07:30 21:00 15:50 15:25 16:35 - 22:30 - - -
Minimum _ -4,5 C -4,5 C -1,2 C 32 % 34 % 1025,0 hPa - 5,4 km/h (2 Bft) - - -
_ Max-Zeit 14:25 14:45 00:00 23:55 23:55 10:05 00:00 20:35 - - 09:25
Maximum _ 1,2 C 1,3 C -0,8 C 65 % 65 % 1029,0 hPa 0,0 l/m 36,4 km/h
O (5 Bft)
- - 44 min
Durchschnitt _ -1,7 C -1,8 C -1,0 C 49 % 51 % 1026,6 hPa #0,0 l/m 17,6 km/h (3 Bft) O - #9:15 h